{"data":{"norad_id":65276,"intl_designator":"2025-184D","name":"STARLINK-34968","alt_names":[],"object_type":"PAYLOAD","status":"ACTIVE","operator":null,"country":"US","launch_date":"2025-08-22","launch_site_code":"AFWTR","launch_vehicle":null,"mission":null,"orbit_class":"UNKNOWN","rcs_meters":null,"size_class":null,"mass_kg":null,"dimensions":null,"purposes":["comms"],"wikipedia_slug":null,"has_3d_model":false,"image_url":null,"decayed_at":null,"tle_current":{"epoch":"2026-09-20T14:27:03.422016Z","epoch_age_seconds":108748,"freshness":"FRESH","line1":"1 65276U 25184D   26263.60212294  .00019944  00000+0  61835-3 0  9993","line2":"2 65276  97.2840 311.6215 0001628  72.2107 287.9313 15.33450240 60740","mean_motion":15.3345024,"eccentricity":0.0001628,"inclination_deg":97.284,"raan_deg":311.6215,"arg_perigee_deg":72.2107,"mean_anomaly_deg":287.9313,"bstar":0.00061835,"rev_number":6074,"period_min":93.905883767053,"perigee_km":464.41343537491,"apogee_km":466.64173256345,"semimajor_km":6843.6645839692,"source":"CELESTRAK","updated_at":"2026-09-21T09:00:35.563808Z"}}}